sat.trackr.live / text

‹ back to catalog

STARLINK-33605

NORAD 63074 · 2025-035Y

PAYLOAD ACTIVE UNKNOWN

§ Identity

Operator
Country
US
Launch date
2025-02-21
Launch site
AFETR
Launch vehicle
Mass (kg)
RCS (m²)

Purposes: comms

External: N2YO · Heavens-Above · Gunter

§ Orbital elements

Epoch: 2026-05-25T04:53:12.697152Z

Period
94.27 min
Inclination
43.0026°
Eccentricity
0.0001497
Mean motion
15.27580572 rev/d
Perigee alt
482.0 km
Apogee alt
484.1 km
Semi-major
6,861.2 km
B*
6.6616e-4
RAAN
74.7794°
Arg perigee
240.5180°
Mean anomaly
119.5522°
Rev number
7,142

§ Raw data

STARLINK-336051 63074U 25035Y   26145.20361918  .00018115  00000+0  66616-3 0  99962 63074  43.0026  74.7794 0001497 240.5180 119.5522 15.27580572 71427

JSON: /api/v1/satellites/63074 · /tle

For live sub-satellite position, see the globe view (requires WebGL).

§ Visibility from observer

Set your observer location to see the next 7 days of passes ≥ 10°. The values pass through the URL so the page stays shareable.

No JS? Fill the form by hand. The geolocation button needs JavaScript.